Regional Weather Roundup
Issued by NWS Northern Indiana

Home | Current Version | Previous Version | Graphics & Text | Print | Product List | Glossary On
Versions: 1 2 3 4 5 6 7 8 9 10 11 12 13 14 15 16 17 18 19 20 21 22 23 24 25 26 27 28 29 30 31 32 33 34 35 36 37 38 39 40 41 42 43 44 45 46 47 48 49 50
000
ASUS43 KIWX 181400
RWRIWX

KIWX WEATHER ROUNDUP
NATIONAL WEATHER SERVICE NORTHERN INDIANA
1000 AM EDT FRI APR 18 2014

NOTE: "FAIR" INDICATES FEW OR NO CLOUDS BELOW 12,000 FEET WITH NO
SIGNIFICANT WEATHER AND/OR OBSTRUCTIONS TO VISIBILITY.

* THESE STATIONS ARE NOT UNDER NWS QUALITY CONTROL. THEY ALSO MAY NOT
  REPORT WEATHER SUCH AS PRECIPITATION OR FOG.

INZ001>027-181500-
NORTHERN INDIANA

CITY           SKY/WX    TMP DP  RH WIND       PRES   REMARKS
GARY*          SUNNY     45  37  76 N10       30.33R HAZE
VALPARAISO     MOSUNNY   49  38  65 NW6       30.30S
SOUTH BEND     MOSUNNY   52  42  69 NW6       30.30S
GOSHEN         MOSUNNY   54  44  69 W8        30.28R
ANGOLA*        PTSUNNY   52  45  76 CALM      30.27S
FORT WAYNE     PTSUNNY   58  40  51 S5        30.29S
PERU/GRISSOM   PTSUNNY   56  45  65 CALM      30.29S

$$
INZ028>050-181500-
CENTRAL INDIANA

CITY           SKY/WX    TMP DP  RH WIND       PRES   REMARKS
LAFAYETTE      MOSUNNY   55  40  56 NE3       30.29F
KOKOMO*          N/A    N/A N/A N/A MISG        N/A
MUNCIE*        PTSUNNY   55  38  52 CALM      30.29S
INDIANAPOLIS   MOSUNNY   56  38  50 CALM      30.29S

$$
MIZ043>046-050>051-056>058-064>065-071>073-077>080-181500-
SOUTHWEST LOWER MICHIGAN

CITY           SKY/WX    TMP DP  RH WIND       PRES   REMARKS
BATTLE CREEK   MOSUNNY   51  42  71 CALM      30.28F
BENTON HARBOR  SUNNY     46  38  73 NW6       30.30R
COLDWATER*     PTSUNNY   51  45  79 NW5       30.27S
HILLSDALE*     CLOUDY    52  44  73 W3        30.26S
HOLLAND        SUNNY     50  39  66 CALM      30.29S
GRAND RAPIDS   MOSUNNY   51  39  63 CALM      30.28F
KALAMAZOO      SUNNY     52  42  69 CALM      30.28F FOG
STURGIS*       MOSUNNY   52  45  76 CALM      30.26F
THREE RIVERS*  FAIR      52  44  75 CALM      30.28F

$$
OHZ001>008-015>018-024>025-181500-
NORTHWEST OHIO

CITY           SKY/WX    TMP DP  RH WIND       PRES   REMARKS
DEFIANCE       CLOUDY    58  40  51 NE3       30.28F
FINDLAY        MOSUNNY   56  39  53 CALM      30.28S
TOLEDO EXPRESS PTSUNNY   55  40  56 E5        30.27F
TOLEDO METCALF CLOUDY    56  41  57 E5        30.29F
LIMA           MOSUNNY   58  39  49 N8        30.28F

$$
&&



USA.gov is the U.S. government's official web portal to all federal, state and local government web resources and services.